iso_date,epoch_date,Year,Hour,Min,DOY,POS_DOY,Lat,Lon,BP,Ts,Ta,has_bp,has_ts,has_ta,BuoyID,Buoy_Type,Buoy_Owner,Logistics,Hemisphere
2016-02-02T01:46:33Z,1454377594,2016,1,47,33.074,30.23,-77.8446,166.6666,965.2,1.3,-999.0,yes,yes,no,300234061363170,SVP,unknown,unknown,South
2016-02-02T01:59:31Z,1454378371,2016,2,0,33.083,30.239,-77.8446,166.6666,965.1,-0.2,-999.0,yes,yes,no,300234061363170,SVP,unknown,unknown,South
2016-02-02T03:00:00Z,1454382000,2016,3,0,33.125,33.125,-77.8448,166.6512,969.0,2.1,-999.0,yes,yes,no,300234061363170,SVP,unknown,unknown,South
2016-02-02T04:00:28Z,1454385629,2016,4,0,33.167,33.125,-77.8448,166.6512,968.8,1.5,-999.0,yes,yes,no,300234061363170,SVP,unknown,unknown,South
2016-02-02T04:59:31Z,1454389171,2016,5,0,33.208,33.125,-77.8448,166.6512,969.0,1.9,-999.0,yes,yes,no,300234061363170,SVP,unknown,unknown,South
2016-02-02T06:00:00Z,1454392800,2016,6,0,33.25,33.25,-77.8448,166.6514,969.2,0.3,-999.0,yes,yes,no,300234061363170,SVP,unknown,unknown,South
2016-02-02T07:00:28Z,1454396429,2016,7,0,33.292,33.25,-77.8448,166.6514,969.6,-0.4,-999.0,yes,yes,no,300234061363170,SVP,unknown,unknown,South
2016-02-02T07:59:31Z,1454399971,2016,8,0,33.333,33.25,-77.8448,166.6514,969.6,-0.3,-999.0,yes,yes,no,300234061363170,SVP,unknown,unknown,South
2016-02-02T09:00:00Z,1454403600,2016,9,0,33.375,33.375,-77.8448,166.6514,970.0,-1.2,-999.0,yes,yes,no,300234061363170,SVP,unknown,unknown,South
2016-02-02T10:00:28Z,1454407229,2016,10,0,33.417,33.375,-77.8448,166.6514,969.9,-1.1,-999.0,yes,yes,no,300234061363170,SVP,unknown,unknown,South
2016-02-02T10:59:31Z,1454410771,2016,11,0,33.458,33.375,-77.8448,166.6514,969.5,-1.0,-999.0,yes,yes,no,300234061363170,SVP,unknown,unknown,South
2016-02-02T12:00:00Z,1454414400,2016,12,0,33.5,33.5,-77.845,166.6514,969.2,-1.7,-999.0,yes,yes,no,300234061363170,SVP,unknown,unknown,South
2016-02-02T13:00:28Z,1454418029,2016,13,0,33.542,33.5,-77.845,166.6514,969.1,-1.8,-999.0,yes,yes,no,300234061363170,SVP,unknown,unknown,South
2016-02-02T13:59:31Z,1454421571,2016,14,0,33.583,33.5,-77.845,166.6514,969.1,-1.8,-999.0,yes,yes,no,300234061363170,SVP,unknown,unknown,South
2016-02-02T15:00:00Z,1454425200,2016,15,0,33.625,33.625,-77.8448,166.6514,969.2,-2.4,-999.0,yes,yes,no,300234061363170,SVP,unknown,unknown,South
2016-02-02T16:00:28Z,1454428829,2016,16,0,33.667,33.625,-77.8448,166.6514,970.4,-3.8,-999.0,yes,yes,no,300234061363170,SVP,unknown,unknown,South
2016-02-02T16:59:31Z,1454432371,2016,17,0,33.708,33.625,-77.8448,166.6514,971.0,-4.0,-999.0,yes,yes,no,300234061363170,SVP,unknown,unknown,South
2016-02-02T18:00:00Z,1454436000,2016,18,0,33.75,33.75,-77.8448,166.6514,971.0,-3.9,-999.0,yes,yes,no,300234061363170,SVP,unknown,unknown,South
2016-02-02T19:00:28Z,1454439629,2016,19,0,33.792,33.75,-77.8448,166.6514,971.4,-3.3,-999.0,yes,yes,no,300234061363170,SVP,unknown,unknown,South
2016-02-02T19:59:31Z,1454443171,2016,20,0,33.833,33.75,-77.8448,166.6514,971.6,-2.8,-999.0,yes,yes,no,300234061363170,SVP,unknown,unknown,South
2016-02-02T21:00:00Z,1454446800,2016,21,0,33.875,33.875,-77.8448,166.6514,971.5,-2.0,-999.0,yes,yes,no,300234061363170,SVP,unknown,unknown,South
2016-02-02T22:00:28Z,1454450429,2016,22,0,33.917,33.875,-77.8448,166.6514,972.5,-1.7,-999.0,yes,yes,no,300234061363170,SVP,unknown,unknown,South
2016-02-02T22:59:31Z,1454453971,2016,23,0,33.958,33.875,-77.8448,166.6514,972.9,-1.4,-999.0,yes,yes,no,300234061363170,SVP,unknown,unknown,South
2016-02-03T00:00:00Z,1454457600,2016,0,0,34.0,34.0,-77.8448,166.6514,973.1,-1.0,-999.0,yes,yes,no,300234061363170,SVP,unknown,unknown,South
2016-02-03T01:00:28Z,1454461229,2016,1,0,34.042,34.0,-77.8448,166.6514,973.3,-0.4,-999.0,yes,yes,no,300234061363170,SVP,unknown,unknown,South
2016-02-03T01:59:31Z,1454464771,2016,2,0,34.083,34.0,-77.8448,166.6514,973.6,0.0,-999.0,yes,yes,no,300234061363170,SVP,unknown,unknown,South
2016-02-03T03:00:00Z,1454468400,2016,3,0,34.125,34.125,-77.8448,166.6514,974.1,0.1,-999.0,yes,yes,no,300234061363170,SVP,unknown,unknown,South
2016-02-03T04:00:28Z,1454472029,2016,4,0,34.167,34.125,-77.8448,166.6514,974.2,-1.0,-999.0,yes,yes,no,300234061363170,SVP,unknown,unknown,South
2016-02-03T04:59:31Z,1454475571,2016,5,0,34.208,34.125,-77.8448,166.6514,974.5,-1.2,-999.0,yes,yes,no,300234061363170,SVP,unknown,unknown,South
2016-02-03T06:00:00Z,1454479200,2016,6,0,34.25,34.25,-77.8448,166.6514,975.5,-1.2,-999.0,yes,yes,no,300234061363170,SVP,unknown,unknown,South
2016-02-03T07:00:28Z,1454482829,2016,7,0,34.292,34.25,-77.8448,166.6514,975.9,-1.6,-999.0,yes,yes,no,300234061363170,SVP,unknown,unknown,South
2016-02-03T07:59:31Z,1454486371,2016,8,0,34.333,34.25,-77.8448,166.6514,976.2,-1.9,-999.0,yes,yes,no,300234061363170,SVP,unknown,unknown,South
2016-02-03T09:00:00Z,1454490000,2016,9,0,34.375,34.375,-77.8448,166.6514,976.9,-2.4,-999.0,yes,yes,no,300234061363170,SVP,unknown,unknown,South
2016-02-03T10:00:28Z,1454493629,2016,10,0,34.417,34.375,-77.8448,166.6514,977.7,-2.0,-999.0,yes,yes,no,300234061363170,SVP,unknown,unknown,South
2016-02-03T10:59:31Z,1454497171,2016,11,0,34.458,34.375,-77.8448,166.6514,978.1,-1.7,-999.0,yes,yes,no,300234061363170,SVP,unknown,unknown,South
2016-02-03T12:00:00Z,1454500800,2016,12,0,34.5,34.5,-77.8448,166.6514,979.6,-1.5,-999.0,yes,yes,no,300234061363170,SVP,unknown,unknown,South
2016-02-03T13:00:28Z,1454504429,2016,13,0,34.542,34.5,-77.8448,166.6514,979.7,-1.6,-999.0,yes,yes,no,300234061363170,SVP,unknown,unknown,South
2016-02-03T13:59:31Z,1454507971,2016,14,0,34.583,34.5,-77.8448,166.6514,980.8,-1.9,-999.0,yes,yes,no,300234061363170,SVP,unknown,unknown,South
2016-02-03T15:00:00Z,1454511600,2016,15,0,34.625,34.625,-77.8448,166.6514,982.4,-1.9,-999.0,yes,yes,no,300234061363170,SVP,unknown,unknown,South
2016-02-03T16:00:28Z,1454515229,2016,16,0,34.667,34.625,-77.8448,166.6514,982.4,-2.2,-999.0,yes,yes,no,300234061363170,SVP,unknown,unknown,South
2016-02-03T16:59:31Z,1454518771,2016,17,0,34.708,34.625,-77.8448,166.6514,983.1,-2.7,-999.0,yes,yes,no,300234061363170,SVP,unknown,unknown,South
2016-02-03T18:00:00Z,1454522400,2016,18,0,34.75,34.75,-77.8448,166.6512,983.4,-2.2,-999.0,yes,yes,no,300234061363170,SVP,unknown,unknown,South
2016-02-03T19:00:28Z,1454526029,2016,19,0,34.792,34.75,-77.8448,166.6512,983.8,-1.3,-999.0,yes,yes,no,300234061363170,SVP,unknown,unknown,South
2016-02-03T19:59:31Z,1454529571,2016,20,0,34.833,34.75,-77.8448,166.6512,984.2,0.0,-999.0,yes,yes,no,300234061363170,SVP,unknown,unknown,South
2016-02-03T21:00:00Z,1454533200,2016,21,0,34.875,34.875,-77.8448,166.6514,984.4,0.0,-999.0,yes,yes,no,300234061363170,SVP,unknown,unknown,South
2016-02-03T22:00:28Z,1454536829,2016,22,0,34.917,34.875,-77.8448,166.6514,984.4,0.6,-999.0,yes,yes,no,300234061363170,SVP,unknown,unknown,South
2016-02-03T22:59:31Z,1454540371,2016,23,0,34.958,34.875,-77.8448,166.6514,985.0,1.2,-999.0,yes,yes,no,300234061363170,SVP,unknown,unknown,South
2016-02-04T00:00:00Z,1454544000,2016,0,0,35.0,35.0,-77.8448,166.6514,985.0,1.7,-999.0,yes,yes,no,300234061363170,SVP,unknown,unknown,South
2016-02-04T01:00:28Z,1454547629,2016,1,0,35.042,35.0,-77.8448,166.6514,985.3,2.3,-999.0,yes,yes,no,300234061363170,SVP,unknown,unknown,South
2016-02-04T01:59:31Z,1454551171,2016,2,0,35.083,35.0,-77.8448,166.6514,985.0,1.9,-999.0,yes,yes,no,300234061363170,SVP,unknown,unknown,South
2016-02-04T03:00:00Z,1454554800,2016,3,0,35.125,35.125,-77.845,166.6514,984.5,2.0,-999.0,yes,yes,no,300234061363170,SVP,unknown,unknown,South
2016-02-04T04:00:28Z,1454558429,2016,4,0,35.167,35.125,-77.845,166.6514,984.4,2.6,-999.0,yes,yes,no,300234061363170,SVP,unknown,unknown,South
2016-02-04T04:59:31Z,1454561971,2016,5,0,35.208,35.125,-77.845,166.6514,984.1,2.3,-999.0,yes,yes,no,300234061363170,SVP,unknown,unknown,South
2016-02-04T06:00:00Z,1454565600,2016,6,0,35.25,35.25,-77.8448,166.6514,983.7,2.4,-999.0,yes,yes,no,300234061363170,SVP,unknown,unknown,South
2016-02-04T07:00:28Z,1454569229,2016,7,0,35.292,35.25,-77.8448,166.6514,983.6,1.4,-999.0,yes,yes,no,300234061363170,SVP,unknown,unknown,South
2016-02-04T07:59:31Z,1454572771,2016,8,0,35.333,35.25,-77.8448,166.6514,983.4,0.6,-999.0,yes,yes,no,300234061363170,SVP,unknown,unknown,South
2016-02-04T09:00:00Z,1454576400,2016,9,0,35.375,35.375,-77.8448,166.6514,982.9,0.7,-999.0,yes,yes,no,300234061363170,SVP,unknown,unknown,South
2016-02-04T10:00:28Z,1454580029,2016,10,0,35.417,35.375,-77.8448,166.6514,982.3,0.4,-999.0,yes,yes,no,300234061363170,SVP,unknown,unknown,South
2016-02-04T10:59:31Z,1454583571,2016,11,0,35.458,35.375,-77.8448,166.6514,981.9,-0.1,-999.0,yes,yes,no,300234061363170,SVP,unknown,unknown,South
2016-02-04T12:00:00Z,1454587200,2016,12,0,35.5,35.5,-77.8448,166.6514,981.4,0.0,-999.0,yes,yes,no,300234061363170,SVP,unknown,unknown,South
2016-02-04T13:00:28Z,1454590829,2016,13,0,35.542,35.5,-77.8448,166.6514,980.9,-1.8,-999.0,yes,yes,no,300234061363170,SVP,unknown,unknown,South
2016-02-04T13:59:31Z,1454594371,2016,14,0,35.583,35.5,-77.8448,166.6514,980.7,-2.7,-999.0,yes,yes,no,300234061363170,SVP,unknown,unknown,South
2016-02-04T15:00:00Z,1454598000,2016,15,0,35.625,35.625,-77.8448,166.6514,980.0,-3.3,-999.0,yes,yes,no,300234061363170,SVP,unknown,unknown,South
2016-02-04T16:00:28Z,1454601629,2016,16,0,35.667,35.625,-77.8448,166.6514,979.5,-4.7,-999.0,yes,yes,no,300234061363170,SVP,unknown,unknown,South
2016-02-04T16:59:31Z,1454605171,2016,17,0,35.708,35.625,-77.8448,166.6514,979.4,-4.9,-999.0,yes,yes,no,300234061363170,SVP,unknown,unknown,South
2016-02-04T18:00:00Z,1454608800,2016,18,0,35.75,35.75,-77.8448,166.6512,979.5,-4.5,-999.0,yes,yes,no,300234061363170,SVP,unknown,unknown,South
2016-02-04T19:00:28Z,1454612429,2016,19,0,35.792,35.75,-77.8448,166.6512,979.8,-4.1,-999.0,yes,yes,no,300234061363170,SVP,unknown,unknown,South
2016-02-04T19:59:31Z,1454615971,2016,20,0,35.833,35.75,-77.8448,166.6512,979.9,-3.8,-999.0,yes,yes,no,300234061363170,SVP,unknown,unknown,South
2016-02-04T21:00:00Z,1454619600,2016,21,0,35.875,35.875,-77.8448,166.6512,979.9,-2.0,-999.0,yes,yes,no,300234061363170,SVP,unknown,unknown,South
2016-02-04T22:00:28Z,1454623229,2016,22,0,35.917,35.875,-77.8448,166.6512,980.2,-1.0,-999.0,yes,yes,no,300234061363170,SVP,unknown,unknown,South
2016-02-04T22:59:31Z,1454626771,2016,23,0,35.958,35.875,-77.8448,166.6512,980.1,-0.8,-999.0,yes,yes,no,300234061363170,SVP,unknown,unknown,South
2016-02-05T00:00:00Z,1454630400,2016,0,0,36.0,36.0,-77.8448,166.6512,980.2,-0.9,-999.0,yes,yes,no,300234061363170,SVP,unknown,unknown,South
2016-02-05T01:00:28Z,1454634029,2016,1,0,36.042,36.0,-77.8448,166.6512,980.4,-0.9,-999.0,yes,yes,no,300234061363170,SVP,unknown,unknown,South
2016-02-05T01:59:31Z,1454637571,2016,2,0,36.083,36.0,-77.8448,166.6512,980.4,-0.8,-999.0,yes,yes,no,300234061363170,SVP,unknown,unknown,South
2016-02-05T03:00:00Z,1454641200,2016,3,0,36.125,36.125,-77.8448,166.6512,980.4,-1.2,-999.0,yes,yes,no,300234061363170,SVP,unknown,unknown,South
2016-02-05T04:00:28Z,1454644829,2016,4,0,36.167,36.125,-77.8448,166.6512,980.3,-1.7,-999.0,yes,yes,no,300234061363170,SVP,unknown,unknown,South
2016-02-05T04:59:31Z,1454648371,2016,5,0,36.208,36.125,-77.8448,166.6512,980.4,-1.8,-999.0,yes,yes,no,300234061363170,SVP,unknown,unknown,South
2016-02-05T06:00:00Z,1454652000,2016,6,0,36.25,36.25,-77.8448,166.6514,980.5,-2.3,-999.0,yes,yes,no,300234061363170,SVP,unknown,unknown,South
2016-02-05T07:00:28Z,1454655629,2016,7,0,36.292,36.25,-77.8448,166.6514,980.5,-3.5,-999.0,yes,yes,no,300234061363170,SVP,unknown,unknown,South
2016-02-05T07:59:31Z,1454659171,2016,8,0,36.333,36.25,-77.8448,166.6514,980.6,-4.2,-999.0,yes,yes,no,300234061363170,SVP,unknown,unknown,South
2016-02-05T09:00:00Z,1454662800,2016,9,0,36.375,36.375,-77.8448,166.6514,980.7,-4.7,-999.0,yes,yes,no,300234061363170,SVP,unknown,unknown,South
2016-02-05T10:00:28Z,1454666429,2016,10,0,36.417,36.375,-77.8448,166.6514,980.8,-5.2,-999.0,yes,yes,no,300234061363170,SVP,unknown,unknown,South
2016-02-05T10:59:31Z,1454669971,2016,11,0,36.458,36.375,-77.8448,166.6514,981.1,-5.2,-999.0,yes,yes,no,300234061363170,SVP,unknown,unknown,South
2016-02-05T12:00:00Z,1454673600,2016,12,0,36.5,36.5,-77.8448,166.6514,981.4,-6.2,-999.0,yes,yes,no,300234061363170,SVP,unknown,unknown,South
2016-02-05T13:00:28Z,1454677229,2016,13,0,36.542,36.5,-77.8448,166.6514,981.7,-6.6,-999.0,yes,yes,no,300234061363170,SVP,unknown,unknown,South
2016-02-05T13:59:31Z,1454680771,2016,14,0,36.583,36.5,-77.8448,166.6514,981.7,-6.7,-999.0,yes,yes,no,300234061363170,SVP,unknown,unknown,South
2016-02-05T15:00:00Z,1454684400,2016,15,0,36.625,36.625,-77.8448,166.6514,981.5,-6.7,-999.0,yes,yes,no,300234061363170,SVP,unknown,unknown,South
2016-02-05T16:00:28Z,1454688029,2016,16,0,36.667,36.625,-77.8448,166.6514,981.1,-6.9,-999.0,yes,yes,no,300234061363170,SVP,unknown,unknown,South
2016-02-05T16:59:31Z,1454691571,2016,17,0,36.708,36.625,-77.8448,166.6514,980.9,-6.2,-999.0,yes,yes,no,300234061363170,SVP,unknown,unknown,South
2016-02-05T18:00:00Z,1454695200,2016,18,0,36.75,36.75,-77.8448,166.6514,980.9,-5.1,-999.0,yes,yes,no,300234061363170,SVP,unknown,unknown,South
2016-02-05T19:00:28Z,1454698829,2016,19,0,36.792,36.75,-77.8448,166.6514,981.1,-3.8,-999.0,yes,yes,no,300234061363170,SVP,unknown,unknown,South
2016-02-05T19:59:31Z,1454702371,2016,20,0,36.833,36.75,-77.8448,166.6514,981.2,-3.3,-999.0,yes,yes,no,300234061363170,SVP,unknown,unknown,South
2016-02-05T21:00:00Z,1454706000,2016,21,0,36.875,36.875,-77.845,166.6512,981.0,-3.3,-999.0,yes,yes,no,300234061363170,SVP,unknown,unknown,South
2016-02-05T22:00:28Z,1454709629,2016,22,0,36.917,36.875,-77.845,166.6512,980.9,-2.8,-999.0,yes,yes,no,300234061363170,SVP,unknown,unknown,South
2016-02-05T22:59:31Z,1454713171,2016,23,0,36.958,36.875,-77.845,166.6512,980.9,-2.1,-999.0,yes,yes,no,300234061363170,SVP,unknown,unknown,South
2016-02-06T00:00:00Z,1454716800,2016,0,0,37.0,37.0,-77.845,166.6514,980.9,-1.6,-999.0,yes,yes,no,300234061363170,SVP,unknown,unknown,South
2016-02-06T01:00:28Z,1454720429,2016,1,0,37.042,37.0,-77.845,166.6514,981.0,-1.5,-999.0,yes,yes,no,300234061363170,SVP,unknown,unknown,South
2016-02-06T01:59:31Z,1454723971,2016,2,0,37.083,37.0,-77.845,166.6514,980.9,-1.6,-999.0,yes,yes,no,300234061363170,SVP,unknown,unknown,South
2016-02-06T03:00:00Z,1454727600,2016,3,0,37.125,37.125,-77.8448,166.6514,980.9,-2.4,-999.0,yes,yes,no,300234061363170,SVP,unknown,unknown,South
2016-02-06T04:00:28Z,1454731229,2016,4,0,37.167,37.125,-77.8448,166.6514,981.0,-2.6,-999.0,yes,yes,no,300234061363170,SVP,unknown,unknown,South
2016-02-06T04:59:31Z,1454734771,2016,5,0,37.208,37.125,-77.8448,166.6514,981.2,-3.1,-999.0,yes,yes,no,300234061363170,SVP,unknown,unknown,South
2016-02-06T06:00:00Z,1454738400,2016,6,0,37.25,37.25,-77.8448,166.6514,981.2,-3.8,-999.0,yes,yes,no,300234061363170,SVP,unknown,unknown,South
2016-02-06T07:00:28Z,1454742029,2016,7,0,37.292,37.25,-77.8448,166.6514,981.6,-4.2,-999.0,yes,yes,no,300234061363170,SVP,unknown,unknown,South
2016-02-06T07:59:31Z,1454745571,2016,8,0,37.333,37.25,-77.8448,166.6514,982.2,-4.4,-999.0,yes,yes,no,300234061363170,SVP,unknown,unknown,South
2016-02-06T09:00:00Z,1454749200,2016,9,0,37.375,37.375,-77.8448,166.6514,982.8,-4.9,-999.0,yes,yes,no,300234061363170,SVP,unknown,unknown,South
2016-02-06T10:00:28Z,1454752829,2016,10,0,37.417,37.375,-77.8448,166.6514,983.2,-5.0,-999.0,yes,yes,no,300234061363170,SVP,unknown,unknown,South
2016-02-06T10:59:31Z,1454756371,2016,11,0,37.458,37.375,-77.8448,166.6514,983.4,-5.1,-999.0,yes,yes,no,300234061363170,SVP,unknown,unknown,South
2016-02-06T12:00:00Z,1454760000,2016,12,0,37.5,37.5,-77.8448,166.6514,983.5,-5.1,-999.0,yes,yes,no,300234061363170,SVP,unknown,unknown,South
2016-02-06T13:00:28Z,1454763629,2016,13,0,37.542,37.5,-77.8448,166.6514,983.6,-5.4,-999.0,yes,yes,no,300234061363170,SVP,unknown,unknown,South
2016-02-06T13:59:31Z,1454767171,2016,14,0,37.583,37.5,-77.8448,166.6514,983.8,-5.6,-999.0,yes,yes,no,300234061363170,SVP,unknown,unknown,South
2016-02-06T15:00:00Z,1454770800,2016,15,0,37.625,37.625,-77.8448,166.6514,983.8,-5.6,-999.0,yes,yes,no,300234061363170,SVP,unknown,unknown,South
2016-02-06T16:00:28Z,1454774429,2016,16,0,37.667,37.625,-77.8448,166.6514,983.9,-6.0,-999.0,yes,yes,no,300234061363170,SVP,unknown,unknown,South
2016-02-06T16:59:31Z,1454777971,2016,17,0,37.708,37.625,-77.8448,166.6514,984.2,-7.3,-999.0,yes,yes,no,300234061363170,SVP,unknown,unknown,South
2016-02-06T18:00:00Z,1454781600,2016,18,0,37.75,37.75,-77.8448,166.6514,984.5,-6.5,-999.0,yes,yes,no,300234061363170,SVP,unknown,unknown,South
2016-02-06T19:00:28Z,1454785229,2016,19,0,37.792,37.75,-77.8448,166.6514,984.7,-4.4,-999.0,yes,yes,no,300234061363170,SVP,unknown,unknown,South
2016-02-06T19:59:31Z,1454788771,2016,20,0,37.833,37.75,-77.8448,166.6514,984.9,-3.2,-999.0,yes,yes,no,300234061363170,SVP,unknown,unknown,South
2016-02-06T21:00:00Z,1454792400,2016,21,0,37.875,37.875,-77.8448,166.6514,985.1,-2.8,-999.0,yes,yes,no,300234061363170,SVP,unknown,unknown,South
2016-02-06T22:00:28Z,1454796029,2016,22,0,37.917,37.875,-77.8448,166.6514,985.2,-1.8,-999.0,yes,yes,no,300234061363170,SVP,unknown,unknown,South
2016-02-06T22:59:31Z,1454799571,2016,23,0,37.958,37.875,-77.8448,166.6514,985.2,-0.5,-999.0,yes,yes,no,300234061363170,SVP,unknown,unknown,South
2016-02-07T00:00:00Z,1454803200,2016,0,0,38.0,38.0,-77.845,166.6514,985.3,0.1,-999.0,yes,yes,no,300234061363170,SVP,unknown,unknown,South
2016-02-07T01:00:28Z,1454806829,2016,1,0,38.042,38.0,-77.845,166.6514,985.3,1.3,-999.0,yes,yes,no,300234061363170,SVP,unknown,unknown,South
2016-02-07T01:59:31Z,1454810371,2016,2,0,38.083,38.0,-77.845,166.6514,985.2,1.1,-999.0,yes,yes,no,300234061363170,SVP,unknown,unknown,South
2016-02-07T03:00:00Z,1454814000,2016,3,0,38.125,38.125,-77.8448,166.6514,985.1,1.3,-999.0,yes,yes,no,300234061363170,SVP,unknown,unknown,South
2016-02-07T04:00:28Z,1454817629,2016,4,0,38.167,38.125,-77.8448,166.6514,984.8,2.4,-999.0,yes,yes,no,300234061363170,SVP,unknown,unknown,South
2016-02-07T04:59:31Z,1454821171,2016,5,0,38.208,38.125,-77.8448,166.6514,984.7,2.0,-999.0,yes,yes,no,300234061363170,SVP,unknown,unknown,South
2016-02-07T06:00:00Z,1454824800,2016,6,0,38.25,38.25,-77.8448,166.6514,984.5,1.0,-999.0,yes,yes,no,300234061363170,SVP,unknown,unknown,South
2016-02-07T07:00:28Z,1454828429,2016,7,0,38.292,38.25,-77.8448,166.6514,984.4,0.1,-999.0,yes,yes,no,300234061363170,SVP,unknown,unknown,South
2016-02-07T07:59:31Z,1454831971,2016,8,0,38.333,38.25,-77.8448,166.6514,984.5,-0.8,-999.0,yes,yes,no,300234061363170,SVP,unknown,unknown,South
2016-02-07T09:00:00Z,1454835600,2016,9,0,38.375,38.375,-77.8448,166.6514,984.7,-1.1,-999.0,yes,yes,no,300234061363170,SVP,unknown,unknown,South
2016-02-07T10:00:28Z,1454839229,2016,10,0,38.417,38.375,-77.8448,166.6514,984.7,-1.0,-999.0,yes,yes,no,300234061363170,SVP,unknown,unknown,South
2016-02-07T10:59:31Z,1454842771,2016,11,0,38.458,38.375,-77.8448,166.6514,984.7,-1.5,-999.0,yes,yes,no,300234061363170,SVP,unknown,unknown,South
2016-02-07T12:00:00Z,1454846400,2016,12,0,38.5,38.5,-77.8448,166.6514,984.6,-2.7,-999.0,yes,yes,no,300234061363170,SVP,unknown,unknown,South
2016-02-07T13:00:28Z,1454850029,2016,13,0,38.542,38.5,-77.8448,166.6514,984.4,-3.6,-999.0,yes,yes,no,300234061363170,SVP,unknown,unknown,South
2016-02-07T13:59:31Z,1454853571,2016,14,0,38.583,38.5,-77.8448,166.6514,984.2,-4.3,-999.0,yes,yes,no,300234061363170,SVP,unknown,unknown,South
2016-02-07T15:00:00Z,1454857200,2016,15,0,38.625,38.625,-77.8448,166.6514,984.3,-4.7,-999.0,yes,yes,no,300234061363170,SVP,unknown,unknown,South
2016-02-07T16:00:28Z,1454860829,2016,16,0,38.667,38.625,-77.8448,166.6514,984.2,-4.0,-999.0,yes,yes,no,300234061363170,SVP,unknown,unknown,South
2016-02-07T16:59:31Z,1454864371,2016,17,0,38.708,38.625,-77.8448,166.6514,984.2,-3.6,-999.0,yes,yes,no,300234061363170,SVP,unknown,unknown,South
2016-02-07T18:00:00Z,1454868000,2016,18,0,38.75,38.75,-77.8448,166.6514,984.1,-3.0,-999.0,yes,yes,no,300234061363170,SVP,unknown,unknown,South
2016-02-07T19:00:28Z,1454871629,2016,19,0,38.792,38.75,-77.8448,166.6514,984.0,-2.5,-999.0,yes,yes,no,300234061363170,SVP,unknown,unknown,South
2016-02-07T19:59:31Z,1454875171,2016,20,0,38.833,38.75,-77.8448,166.6514,983.9,-2.4,-999.0,yes,yes,no,300234061363170,SVP,unknown,unknown,South
2016-02-07T21:00:00Z,1454878800,2016,21,0,38.875,38.875,-77.8448,166.6512,983.9,-2.3,-999.0,yes,yes,no,300234061363170,SVP,unknown,unknown,South
2016-02-07T22:00:28Z,1454882429,2016,22,0,38.917,38.875,-77.8448,166.6512,983.9,-2.0,-999.0,yes,yes,no,300234061363170,SVP,unknown,unknown,South
2016-02-07T22:59:31Z,1454885971,2016,23,0,38.958,38.875,-77.8448,166.6512,983.7,-2.2,-999.0,yes,yes,no,300234061363170,SVP,unknown,unknown,South
2016-02-08T00:00:00Z,1454889600,2016,0,0,39.0,39.0,-77.8448,166.6514,983.4,-2.2,-999.0,yes,yes,no,300234061363170,SVP,unknown,unknown,South
2016-02-08T01:00:28Z,1454893229,2016,1,0,39.042,39.0,-77.8448,166.6514,983.1,-1.8,-999.0,yes,yes,no,300234061363170,SVP,unknown,unknown,South
2016-02-08T01:59:31Z,1454896771,2016,2,0,39.083,39.0,-77.8448,166.6514,982.9,-1.9,-999.0,yes,yes,no,300234061363170,SVP,unknown,unknown,South
2016-02-08T03:00:00Z,1454900400,2016,3,0,39.125,39.125,-77.8448,166.6514,982.7,-1.6,-999.0,yes,yes,no,300234061363170,SVP,unknown,unknown,South
2016-02-08T04:00:28Z,1454904029,2016,4,0,39.167,39.125,-77.8448,166.6514,982.6,-1.3,-999.0,yes,yes,no,300234061363170,SVP,unknown,unknown,South
2016-02-08T04:59:31Z,1454907571,2016,5,0,39.208,39.125,-77.8448,166.6514,982.5,-0.6,-999.0,yes,yes,no,300234061363170,SVP,unknown,unknown,South
2016-02-08T06:00:00Z,1454911200,2016,6,0,39.25,39.25,-77.8448,166.6514,982.5,-0.9,-999.0,yes,yes,no,300234061363170,SVP,unknown,unknown,South
2016-02-08T07:00:28Z,1454914829,2016,7,0,39.292,39.25,-77.8448,166.6514,982.4,-1.6,-999.0,yes,yes,no,300234061363170,SVP,unknown,unknown,South
2016-02-08T07:59:31Z,1454918371,2016,8,0,39.333,39.25,-77.8448,166.6514,982.5,-1.8,-999.0,yes,yes,no,300234061363170,SVP,unknown,unknown,South
2016-02-08T09:00:00Z,1454922000,2016,9,0,39.375,39.375,-77.8448,166.6514,982.3,-2.6,-999.0,yes,yes,no,300234061363170,SVP,unknown,unknown,South
2016-02-08T10:00:28Z,1454925629,2016,10,0,39.417,39.375,-77.8448,166.6514,982.3,-3.0,-999.0,yes,yes,no,300234061363170,SVP,unknown,unknown,South
2016-02-08T10:59:31Z,1454929171,2016,11,0,39.458,39.375,-77.8448,166.6514,982.2,-3.0,-999.0,yes,yes,no,300234061363170,SVP,unknown,unknown,South
2016-02-08T12:00:00Z,1454932800,2016,12,0,39.5,39.5,-77.8448,166.6514,982.2,-3.3,-999.0,yes,yes,no,300234061363170,SVP,unknown,unknown,South
2016-02-08T13:00:28Z,1454936429,2016,13,0,39.542,39.5,-77.8448,166.6514,982.2,-3.2,-999.0,yes,yes,no,300234061363170,SVP,unknown,unknown,South
2016-02-08T13:59:31Z,1454939971,2016,14,0,39.583,39.5,-77.8448,166.6514,982.2,-3.4,-999.0,yes,yes,no,300234061363170,SVP,unknown,unknown,South
2016-02-08T15:00:00Z,1454943600,2016,15,0,39.625,39.625,-77.8448,166.6514,982.3,-3.5,-999.0,yes,yes,no,300234061363170,SVP,unknown,unknown,South
2016-02-08T16:00:28Z,1454947229,2016,16,0,39.667,39.625,-77.8448,166.6514,982.4,-4.2,-999.0,yes,yes,no,300234061363170,SVP,unknown,unknown,South
2016-02-08T16:59:31Z,1454950771,2016,17,0,39.708,39.625,-77.8448,166.6514,982.4,-4.0,-999.0,yes,yes,no,300234061363170,SVP,unknown,unknown,South
2016-02-08T18:00:00Z,1454954400,2016,18,0,39.75,39.75,-77.8448,166.6514,982.6,-3.5,-999.0,yes,yes,no,300234061363170,SVP,unknown,unknown,South
2016-02-08T19:00:28Z,1454958029,2016,19,0,39.792,39.75,-77.8448,166.6514,982.8,-3.4,-999.0,yes,yes,no,300234061363170,SVP,unknown,unknown,South
2016-02-08T19:59:31Z,1454961571,2016,20,0,39.833,39.75,-77.8448,166.6514,982.6,-3.0,-999.0,yes,yes,no,300234061363170,SVP,unknown,unknown,South
2016-02-08T21:00:00Z,1454965200,2016,21,0,39.875,39.875,-77.8448,166.6512,982.6,-2.4,-999.0,yes,yes,no,300234061363170,SVP,unknown,unknown,South
2016-02-08T22:00:28Z,1454968829,2016,22,0,39.917,39.875,-77.8448,166.6512,982.8,-2.1,-999.0,yes,yes,no,300234061363170,SVP,unknown,unknown,South